SPACEBEE-8 (44371 NORAD) Tracking and Keplerian Element Data

This shows tracking and keplerian element data for the satellite.

Feedback or suggestion? Click here.




ElementValue
Catalog44371
NameSPACEBEE-8
Epoch Orbit1741
Epoch Day293.53358506
Epoch Year2019
RAAN18.8339
Inclination45.0148
Eccentricity0.001482
Argument of Perigee216.7166
Mean Anonmoly143.2711
Mean Motion15.41174648
Decay Rate0.00011588
L11 44371U 19037G 19293.53358506 .00011588 00000-0 28034-3 0 9991
L22 44371 45.0148 18.8339 0014820 216.7166 143.2711 15.41174648 17412

Live tracking and technical data element details for SPACEBEE-8 (NORAD 44371). SPACEBEE-8 can be tracked NOW for your location showing map with azimuth and elevation plus other details from your city location.

Track the satellite on the map from your city or location and see movement details for azimuth, elevation, latitude, longitude, range, height, and movement on the map or in text.







IsCatalogInMostPopularTable: catalog: 44371, numindb: 25
Update: records affected: 1



GetName: 44371 SPACEBEE-8

Hit Count: updated at: Wed, 23 Oct 2019 00:37:25 GMT